Time,TemperatureF,DewpointF,PressureIn,WindDirection,WindDirectionDegrees,WindSpeedMPH,WindSpeedGustMPH,Humidity,HourlyPrecipIn,Conditions,Clouds,dailyrainin,SoftwareType,DateUTC
2013-03-15 00:12:00,49.3,48.8,30.14,West,270,0.0,-999.0,98,-99.99,,,0.00,Acu-Link.com,2013-03-15 05:12:00,
2013-03-15 00:27:00,48.7,48.2,30.14,SW,225,0.0,-999.0,98,-99.99,,,0.00,Acu-Link.com,2013-03-15 05:27:00,
2013-03-15 00:42:00,48.0,47.5,30.14,SSE,157,0.0,-999.0,98,-99.99,,,0.00,Acu-Link.com,2013-03-15 05:42:00,
2013-03-15 00:57:00,48.0,47.5,30.14,West,270,0.0,-999.0,98,-99.99,,,0.00,Acu-Link.com,2013-03-15 05:57:00,
2013-03-15 01:13:00,46.9,46.4,30.13,West,270,0.0,-999.0,98,-99.99,,,0.00,Acu-Link.com,2013-03-15 06:13:00,
2013-03-15 01:28:00,46.6,46.1,30.13,West,270,0.0,-999.0,98,-99.99,,,0.00,Acu-Link.com,2013-03-15 06:28:00,
2013-03-15 01:43:00,46.6,46.1,30.13,West,270,0.0,-999.0,98,-99.99,,,0.00,Acu-Link.com,2013-03-15 06:43:00,
2013-03-15 01:58:00,46.0,45.5,30.12,West,270,0.0,-999.0,98,-99.99,,,0.00,Acu-Link.com,2013-03-15 06:58:00,
2013-03-15 02:13:00,46.2,45.7,30.12,SW,225,0.0,-999.0,98,-99.99,,,0.00,Acu-Link.com,2013-03-15 07:13:00,
2013-03-15 02:28:00,45.5,45.0,30.12,East,90,0.0,-999.0,98,-99.99,,,0.00,Acu-Link.com,2013-03-15 07:28:00,
2013-03-15 02:43:00,45.5,45.0,30.11,NNE,22,0.0,-999.0,98,-99.99,,,0.00,Acu-Link.com,2013-03-15 07:43:00,
2013-03-15 02:58:00,44.8,44.3,30.11,South,180,0.0,-999.0,98,-99.99,,,0.00,Acu-Link.com,2013-03-15 07:58:00,
2013-03-15 03:29:00,44.2,43.7,30.09,SSW,202,0.0,-999.0,98,-99.99,,,0.00,Acu-Link.com,2013-03-15 08:29:00,
2013-03-15 03:44:00,43.7,43.2,30.09,SSW,202,0.0,-999.0,98,-99.99,,,0.00,Acu-Link.com,2013-03-15 08:44:00,
2013-03-15 03:59:00,43.7,43.2,30.09,NNE,22,0.0,-999.0,98,-99.99,,,0.00,Acu-Link.com,2013-03-15 08:59:00,
2013-03-15 04:14:00,43.7,43.2,30.08,NNE,22,0.0,-999.0,98,-99.99,,,0.00,Acu-Link.com,2013-03-15 09:14:00,
2013-03-15 04:29:00,43.5,43.0,30.08,SSE,157,0.0,-999.0,98,-99.99,,,0.00,Acu-Link.com,2013-03-15 09:29:00,
2013-03-15 04:44:00,43.0,42.5,30.08,NE,45,0.0,-999.0,98,-99.99,,,0.00,Acu-Link.com,2013-03-15 09:44:00,
2013-03-15 05:00:00,43.0,42.5,30.07,South,180,0.0,-999.0,98,-99.99,,,0.00,Acu-Link.com,2013-03-15 10:00:00,
2013-03-15 05:15:00,42.6,42.1,30.07,SSW,202,0.0,-999.0,98,-99.99,,,0.00,Acu-Link.com,2013-03-15 10:15:00,
2013-03-15 05:30:00,42.4,41.9,30.08,ENE,67,0.0,-999.0,98,-99.99,,,0.00,Acu-Link.com,2013-03-15 10:30:00,
2013-03-15 05:45:00,42.6,42.1,30.08,ENE,67,0.0,-999.0,98,-99.99,,,0.00,Acu-Link.com,2013-03-15 10:45:00,
2013-03-15 06:00:00,42.8,42.3,30.08,SE,135,0.0,-999.0,98,-99.99,,,0.00,Acu-Link.com,2013-03-15 11:00:00,
2013-03-15 06:15:00,42.8,42.3,30.09,SSE,157,0.0,-999.0,98,-99.99,,,0.00,Acu-Link.com,2013-03-15 11:15:00,
2013-03-15 06:30:00,42.8,42.3,30.09,East,90,0.0,-999.0,98,-99.99,,,0.00,Acu-Link.com,2013-03-15 11:30:00,
2013-03-15 06:45:00,43.0,42.5,30.08,East,90,0.0,-999.0,98,-99.99,,,0.00,Acu-Link.com,2013-03-15 11:45:00,
2013-03-15 07:00:00,42.6,42.1,30.09,NNE,22,0.0,-999.0,98,-99.99,,,0.00,Acu-Link.com,2013-03-15 12:00:00,
2013-03-15 07:16:00,42.6,42.1,30.09,East,90,0.0,-999.0,98,-99.99,,,0.00,Acu-Link.com,2013-03-15 12:16:00,
2013-03-15 07:31:00,42.6,42.1,30.09,SE,135,0.0,-999.0,98,-99.99,,,0.00,Acu-Link.com,2013-03-15 12:31:00,
2013-03-15 08:31:00,46.4,45.9,30.10,SSE,157,0.0,-999.0,98,-99.99,,,0.00,Acu-Link.com,2013-03-15 13:31:00,
2013-03-15 08:46:00,50.9,50.4,30.09,South,180,0.0,-999.0,98,-99.99,,,0.00,Acu-Link.com,2013-03-15 13:46:00,
2013-03-15 09:16:00,59.7,59.1,30.10,SSW,202,2.2,-999.0,98,-99.99,,,0.00,Acu-Link.com,2013-03-15 14:16:00,
2013-03-15 09:32:00,62.8,62.2,30.10,SSW,202,4.2,-999.0,98,-99.99,,,0.00,Acu-Link.com,2013-03-15 14:32:00,
2013-03-15 09:47:00,64.9,62.8,30.10,SW,225,3.7,-999.0,93,-99.99,,,0.00,Acu-Link.com,2013-03-15 14:47:00,
2013-03-15 10:02:00,66.0,63.3,30.10,SSW,202,2.2,-999.0,91,-99.99,,,0.00,Acu-Link.com,2013-03-15 15:02:00,
2013-03-15 10:17:00,67.5,62.8,30.10,WSW,247,7.3,-999.0,85,-99.99,,,0.00,Acu-Link.com,2013-03-15 15:17:00,
2013-03-15 10:32:00,68.9,62.8,30.10,WSW,247,8.3,-999.0,81,-99.99,,,0.00,Acu-Link.com,2013-03-15 15:32:00,
2013-03-15 10:47:00,69.1,63.0,30.10,West,270,5.8,-999.0,81,-99.99,,,0.00,Acu-Link.com,2013-03-15 15:47:00,
2013-03-15 11:02:00,70.7,63.5,30.11,SW,225,3.2,-999.0,78,-99.99,,,0.00,Acu-Link.com,2013-03-15 16:02:00,
2013-03-15 11:17:00,71.8,62.3,30.10,South,180,4.2,-999.0,72,-99.99,,,0.00,Acu-Link.com,2013-03-15 16:17:00,
2013-03-15 11:32:00,72.1,61.8,30.09,SSE,157,11.9,-999.0,70,-99.99,,,0.00,Acu-Link.com,2013-03-15 16:32:00,
2013-03-15 11:48:00,72.9,62.1,30.09,SSW,202,10.4,-999.0,69,-99.99,,,0.00,Acu-Link.com,2013-03-15 16:48:00,
2013-03-15 12:03:00,73.9,61.8,30.08,West,270,4.7,-999.0,66,-99.99,,,0.00,Acu-Link.com,2013-03-15 17:03:00,
2013-03-15 12:18:00,74.3,60.4,30.07,SSW,202,4.7,-999.0,62,-99.99,,,0.00,Acu-Link.com,2013-03-15 17:18:00,
2013-03-15 12:33:00,75.9,61.5,30.07,ESE,112,8.9,-999.0,61,-99.99,,,0.00,Acu-Link.com,2013-03-15 17:33:00,
2013-03-15 12:48:00,75.9,59.6,30.06,South,180,11.4,-999.0,57,-99.99,,,0.00,Acu-Link.com,2013-03-15 17:48:00,
2013-03-15 13:03:00,77.4,60.5,30.05,West,270,9.4,-999.0,56,-99.99,,,0.00,Acu-Link.com,2013-03-15 18:03:00,
2013-03-15 13:18:00,77.0,59.1,30.04,SW,225,5.3,-999.0,54,-99.99,,,0.00,Acu-Link.com,2013-03-15 18:18:00,
2013-03-15 13:33:00,78.1,59.6,30.02,SW,225,7.8,-999.0,53,-99.99,,,0.00,Acu-Link.com,2013-03-15 18:33:00,
2013-03-15 13:48:00,76.5,57.5,30.02,WSW,247,7.3,-999.0,52,-99.99,,,0.00,Acu-Link.com,2013-03-15 18:48:00,
2013-03-15 14:04:00,77.9,57.2,30.01,SSW,202,7.3,-999.0,49,-99.99,,,0.00,Acu-Link.com,2013-03-15 19:04:00,
2013-03-15 14:19:00,77.2,57.7,30.00,SSW,202,7.8,-999.0,51,-99.99,,,0.00,Acu-Link.com,2013-03-15 19:19:00,
2013-03-15 14:34:00,78.4,57.6,29.99,SW,225,6.8,-999.0,49,-99.99,,,0.00,Acu-Link.com,2013-03-15 19:34:00,
2013-03-15 14:49:00,77.2,58.7,29.99,SSW,202,3.7,-999.0,53,-99.99,,,0.00,Acu-Link.com,2013-03-15 19:49:00,
2013-03-15 15:04:00,77.2,58.2,29.98,SSW,202,7.3,-999.0,52,-99.99,,,0.00,Acu-Link.com,2013-03-15 20:04:00,
2013-03-15 15:19:00,77.4,58.9,29.97,South,180,3.2,-999.0,53,-99.99,,,0.00,Acu-Link.com,2013-03-15 20:19:00,
2013-03-15 15:34:00,77.5,59.5,29.96,SE,135,3.7,-999.0,54,-99.99,,,0.00,Acu-Link.com,2013-03-15 20:34:00,
2013-03-15 15:49:00,76.3,58.4,29.96,WSW,247,7.8,-999.0,54,-99.99,,,0.00,Acu-Link.com,2013-03-15 20:49:00,
2013-03-15 16:04:00,75.9,58.6,29.95,SSW,202,11.9,-999.0,55,-99.99,,,0.00,Acu-Link.com,2013-03-15 21:04:00,
2013-03-15 16:20:00,75.7,59.4,29.95,SW,225,8.3,-999.0,57,-99.99,,,0.00,Acu-Link.com,2013-03-15 21:20:00,
2013-03-15 16:35:00,75.2,58.4,29.94,SW,225,7.8,-999.0,56,-99.99,,,0.00,Acu-Link.com,2013-03-15 21:35:00,
2013-03-15 16:50:00,75.0,59.2,29.94,SSW,202,7.8,-999.0,58,-99.99,,,0.00,Acu-Link.com,2013-03-15 21:50:00,
2013-03-15 17:05:00,73.9,58.7,29.93,SSW,202,9.9,-999.0,59,-99.99,,,0.00,Acu-Link.com,2013-03-15 22:05:00,
2013-03-15 17:20:00,74.8,58.0,29.93,SSW,202,7.3,-999.0,56,-99.99,,,0.00,Acu-Link.com,2013-03-15 22:20:00,
2013-03-15 17:35:00,74.5,56.7,29.92,SSE,157,7.8,-999.0,54,-99.99,,,0.00,Acu-Link.com,2013-03-15 22:35:00,
2013-03-15 17:51:00,73.6,56.4,29.92,South,180,6.8,-999.0,55,-99.99,,,0.00,Acu-Link.com,2013-03-15 22:51:00,
2013-03-15 18:06:00,73.8,55.1,29.92,SSW,202,11.9,-999.0,52,-99.99,,,0.00,Acu-Link.com,2013-03-15 23:06:00,
2013-03-15 18:51:00,70.9,57.7,29.92,South,180,6.8,-999.0,63,-99.99,,,0.00,Acu-Link.com,2013-03-15 23:51:00,
2013-03-15 19:06:00,70.0,58.1,29.92,SW,225,1.7,-999.0,66,-99.99,,,0.00,Acu-Link.com,2013-03-16 00:06:00,
2013-03-15 19:36:00,66.7,59.3,29.93,SSW,202,5.8,-999.0,77,-99.99,,,0.00,Acu-Link.com,2013-03-16 00:36:00,
2013-03-15 19:51:00,66.0,60.7,29.93,SW,225,4.7,-999.0,83,-99.99,,,0.00,Acu-Link.com,2013-03-16 00:51:00,
2013-03-15 20:07:00,65.3,61.3,29.93,South,180,3.2,-999.0,87,-99.99,,,0.00,Acu-Link.com,2013-03-16 01:07:00,
2013-03-15 20:22:00,64.4,61.7,29.94,SW,225,2.2,-999.0,91,-99.99,,,0.00,Acu-Link.com,2013-03-16 01:22:00,
2013-03-15 20:37:00,63.7,61.9,29.94,South,180,2.7,-999.0,94,-99.99,,,0.00,Acu-Link.com,2013-03-16 01:37:00,
2013-03-15 20:52:00,62.6,62.0,29.94,South,180,1.1,-999.0,98,-99.99,,,0.00,Acu-Link.com,2013-03-16 01:52:00,
2013-03-15 21:07:00,62.2,61.6,29.94,SSW,202,2.7,-999.0,98,-99.99,,,0.00,Acu-Link.com,2013-03-16 02:07:00,
2013-03-15 21:22:00,61.9,61.3,29.94,SSE,157,3.2,-999.0,98,-99.99,,,0.00,Acu-Link.com,2013-03-16 02:22:00,
2013-03-15 21:37:00,61.7,61.1,29.94,South,180,3.7,-999.0,98,-99.99,,,0.00,Acu-Link.com,2013-03-16 02:37:00,
2013-03-15 21:52:00,61.5,60.9,29.95,SSE,157,2.7,-999.0,98,-99.99,,,0.00,Acu-Link.com,2013-03-16 02:52:00,
2013-03-15 22:07:00,61.0,60.4,29.94,South,180,2.2,-999.0,98,-99.99,,,0.00,Acu-Link.com,2013-03-16 03:07:00,
2013-03-15 22:23:00,61.2,60.6,29.94,South,180,2.7,-999.0,98,-99.99,,,0.00,Acu-Link.com,2013-03-16 03:23:00,
2013-03-15 22:38:00,61.2,60.6,29.94,South,180,5.3,-999.0,98,-99.99,,,0.00,Acu-Link.com,2013-03-16 03:38:00,
2013-03-15 22:53:00,61.3,60.7,29.93,SSW,202,3.7,-999.0,98,-99.99,,,0.00,Acu-Link.com,2013-03-16 03:53:00,
2013-03-15 23:08:00,61.0,60.4,29.93,SSW,202,2.7,-999.0,98,-99.99,,,0.00,Acu-Link.com,2013-03-16 04:08:00,
2013-03-15 23:23:00,60.8,60.2,29.93,South,180,1.1,-999.0,98,-99.99,,,0.00,Acu-Link.com,2013-03-16 04:23:00,
2013-03-15 23:38:00,60.8,60.2,29.92,SE,135,1.7,-999.0,98,-99.99,,,0.00,Acu-Link.com,2013-03-16 04:38:00,
2013-03-15 23:53:00,60.4,59.8,29.91,South,180,2.7,-999.0,98,-99.99,,,0.00,Acu-Link.com,2013-03-16 04:53:00,